Regional Weather Roundup
Issued by NWS Jackson, KY

Home | Current Version | Previous Version | Graphics & Text | Print | Product List | Glossary On
Versions: 1 2 3 4 5 6 7 8 9 10 11 12 13 14 15 16 17 18 19 20 21 22 23 24 25 26 27 28 29 30 31 32 33 34 35 36 37 38 39 40 41 42 43 44 45 46 47 48 49 50
000
ASUS43 KJKL 300419
RWRJKL

EAST KENTUCKY HOURLY WEATHER ROUNDUP
NATIONAL WEATHER SERVICE JACKSON KY
1200 AM EDT TUE SEP 30 2014

NOTE: "FAIR" INDICATES FEW OR NO CLOUDS BELOW 12,000 FEET WITH
NO SIGNIFICANT WEATHER AND/OR OBSTRUCTIONS TO VISIBILITY.

* THESE REPORTS ARE NOT UNDER NWS QUALITY CONTROL AND MAY NOT
  REPORT WEATHER SUCH AS PRECIPITATION AND FOG.

KYZ079-080-083-085-087-088-110-112-115-119-120-300500
...EASTERN KENTUCKY...

CITY           SKY/WX    TMP DP  RH WIND       PRES   REMARKS
JACKSON        CLEAR     65  62  90 CALM      29.97F
LONDON         CLEAR     63  60  90 CALM      29.98S
SOMERSET*      CLEAR     61  61 100 CALM      29.98S FOG
MONTICELLO*    CLEAR     57  55  94 CALM      29.99S FOG
MIDDLESBORO*   CLEAR     60  59  97 CALM      30.00S
HARLAN APT*    MOCLDY    61  61 100 CALM      30.00F
HAZARD APT*    CLEAR     64  64 100 CALM      29.98
BLACK MTN*       N/A     59  55  88 NE3         N/A
PIKEVILLE APT* PTCLDY    64  63  94 S5        29.97F
BIG SANDY*     CLOUDY    63  62  96 SW3       29.97S
MOREHEAD APT*  PTCLDY    61  57  88 S3        29.97F
ASHLAND*       CLEAR     59  55  88 CALM      29.91F
$$

KYZ035-036-041-042-044-050-067-078-099-300500
...CENTRAL KENTUCKY...

CITY           SKY/WX    TMP DP  RH WIND       PRES   REMARKS
MT STERLING*   CLEAR     55  55 100 W3        29.97F
FLEMING/MASON* CLEAR     63  52  67 W3        29.96S
DANVILLE*      CLEAR     57  52  82 CALM      29.98S
RICHMOND*      CLEAR     59  54  82 SE5       29.96S
LEXINGTON      CLEAR     62  53  72 CALM      29.96S
FRANKFORT      CLEAR     58  53  84 N3        29.94F
$$

KYZ091>093-OHZ055-061-077-WVZ005-015-034-035-042-300500
...SOUTHERN OHIO/WEST VIRGINIA...

CITY           SKY/WX    TMP DP  RH WIND       PRES   REMARKS
COVINGTON      CLEAR     61  51  70 CALM      29.94F
COLUMBUS       CLEAR     59  52  77 CALM      29.92S
DAYTON         CLEAR     65  49  56 NW6       29.95F
WILMINGTON     CLEAR     56  50  80 CALM      29.94F
HUNTINGTON     CLEAR     62  62 100 S5        29.93S FOG
CHARLESTON     CLEAR     64  62  93 CALM      29.94S
PINEVILLE*     FOG       63  63 100 MISG      30.04S VSB 1/2
BECKLEY        PTCLDY    59  56  89 S3        30.01F
BLUEFIELD      CLEAR     61  55  81 SW5       30.04S
$$

VAZ002-007-008-TNZ017-027-036-066-071-300500
...SOUTHWEST VIRGINIA/EAST TENNESSEE...

CITY           SKY/WX    TMP DP  RH WIND       PRES   REMARKS
WISE*          CLEAR     61  61 100 CALM      30.05S
JONESVILLE*    PTCLDY    59  59 100 CALM      30.02S
ABINGDON*      CLEAR     60  59  98 CALM      30.02S
BRISTOL        MOCLDY    59  56  89 CALM      30.00S
KNOXVILLE      CLEAR     65  61  87 CALM      29.96F
OAK RIDGE      CLEAR     64  62  93 CALM      29.98F
CROSSVILLE     CLEAR     63  58  83 CALM      30.02S
NASHVILLE      MOCLDY    68  61  78 S3        29.96S
$$

...KEY TO REMARKS...
VSB - VISIBILITY IN MILES
WCI - WIND CHILL INDEX
HX  - HEAT INDEX

$$



USA.gov is the U.S. government's official web portal to all federal, state and local government web resources and services.